Погода в Мелихове

Россия / Белгородская область     50°41′39″N   36°47′38″E
темп.,
°C
ветер,
м/с
пор.,
м/с
влажн.,
%
обл.,
%
осадки,
мм/ч
давл.,
гПа
погр.,
м
24 января, пн
пн2400:00−8ссв6159232 0.0 1027361
03:00−9ссв71690100 0.0 1027410
06:00−8ссв71690100 0.0 1027468
09:00−7св71492100 0.3 1027513
12:00−6св71391100 0.1 1027528
15:00−5св61191100 0.1 1027541
18:00−7св51192100 0.0 1028419
21:00−9ссв51094100 0.1 1028339
25 января, вт
вт2500:00−13св4109769 0.0 1028174
03:00−15св359866 0.0 102764
06:00−16св359885 0.0 102775
09:00−13ссв2496100 0.0 102594
12:00−9ссв2292100 0.2 1025179
15:00−8зсз1192100 0.8 1023200
18:00−10зсз1197100 0.1 102210
21:00−11зюз1197100 0.1 102210
26 января, ср
ср2600:00−12юз2297100 0.0 102120
03:00−14юз2298100 0.0 102027
06:00−15юз1199100 0.0 10199
09:00−16юз1198100 0.0 102013
12:00−9юз2292100 0.0 1019175
15:00−7зюз2390100 0.0 1019249
18:00−11зюз119692 0.0 102010
21:00−13зюз119779 0.0 10219
27 января, чт
чт2700:00−13юз119874 0.1 102112
03:00−15юз1110094 0.1 10219
06:00−15юз119878 0.1 102110
09:00−16юз119984 0.2 102113
12:00−9ююз2394100 0.0 1020219
15:00−7юз3592100 0.1 1019392
18:00−13ю229975 0.0 101812
21:00−14ю36100100 0.1 101866
28 января, пт
пт2800:00−15ю38100100 0.0 1017100
03:00−12ю41298100 0.1 1015226
06:00−9ю51195100 0.2 1013289
09:00−8ю61495100 0.5 1011356
12:00−4ю61496100 1.1 1009523
15:000ююз61298100 2.5 1007702
18:000юз61197100 0.5 1006708
21:00−1юз6139686 0.9 1006543